Date String (YYYY-MM-DD hh:mm:ss) UTC,Instrument flags,Ambient pressure (hPa),Sample flow (lpm),Bypass flow (lpm),Sample temperature (°C),Ambient temperature (°C),ASC tube jacket temperature (°C),LED temperature (°C),Box temperature (°C),Sample RH (%),Span deviation,Mass concentration (μg/m³),Mass concentration (μg/m³),Mass concentration (μg/m³)
DateTimeUTC,F1_M11,P_M11,Q1_M11,Q2_M11,T1_M11,T2_M11,T3_M11,T4_M11,T5_M11,U1_M11,ZSPAN_M11,X0_M11,X2_M11,X1_M11
2022-04-20 06:00:00,,0813.1,5.01,0.00,29.4,28.7,00.0,38.4,31.2,09.4,0000.0,0017.26,0004.65,0001.92
2022-04-20 06:01:00,,0812.9,4.99,0.00,29.4,28.7,00.0,38.4,31.2,09.5,0000.0,0019.60,0005.05,0002.07
2022-04-20 06:02:00,,0813.0,5.02,0.00,29.5,28.7,00.0,38.4,31.2,09.5,0000.0,0021.70,0005.43,0002.19
2022-04-20 06:03:00,,0813.0,5.00,0.00,29.5,28.8,00.0,38.4,31.3,09.3,0000.0,0023.33,0005.75,0002.34
2022-04-20 06:04:00,,0813.0,4.99,0.00,29.5,28.8,00.0,38.4,31.2,09.2,0000.0,0025.50,0006.06,0002.47
2022-04-20 06:05:00,,0813.0,5.00,0.00,29.5,28.8,00.0,38.4,31.2,09.2,0000.0,0026.67,0006.27,0002.57
2022-04-20 06:06:00,,0813.1,4.99,0.00,29.5,28.8,00.0,38.4,31.2,09.3,0000.0,0028.40,0006.59,0002.71
2022-04-20 06:07:00,,0813.0,4.99,0.00,29.5,28.8,00.0,38.4,31.3,09.5,0000.0,0030.06,0007.03,0002.84
2022-04-20 06:08:00,,0813.0,5.00,0.00,29.5,28.8,00.0,38.4,31.2,09.4,0000.0,0031.40,0007.35,0002.95
2022-04-20 06:09:00,,0813.0,4.98,0.00,29.5,28.7,00.0,38.4,31.2,09.3,0000.0,0031.09,0007.33,0002.99
2022-04-20 06:10:00,,0813.1,5.01,0.00,29.5,28.7,00.0,38.4,31.2,09.3,0000.0,0029.46,0007.26,0002.98
2022-04-20 06:11:00,,0813.2,5.01,0.00,29.5,28.8,00.0,38.4,31.3,09.3,0000.0,0027.73,0007.19,0002.93
2022-04-20 06:12:00,,0813.2,4.99,0.00,29.5,28.8,00.0,38.4,31.3,09.4,0000.0,0026.95,0007.10,0002.91
2022-04-20 06:13:00,,0813.1,4.99,0.00,29.5,28.8,00.0,38.4,31.3,09.9,0000.0,0026.72,0007.10,0002.96
2022-04-20 06:14:00,,0813.1,5.01,0.00,29.5,28.8,00.0,38.4,31.3,10.2,0000.0,0026.36,0007.36,0003.01
2022-04-20 06:15:00,,0813.2,5.00,0.00,29.5,28.8,00.0,38.4,31.3,10.3,0000.0,0027.04,0007.67,0003.10
2022-04-20 06:16:00,,0813.2,4.98,0.00,29.5,28.8,00.0,38.4,31.3,10.3,0000.0,0029.92,0007.89,0003.16
2022-04-20 06:17:00,,0813.3,4.99,0.00,29.5,28.8,00.0,38.4,31.3,10.3,0000.0,0031.03,0008.06,0003.19
2022-04-20 06:18:00,,0813.3,5.00,0.00,29.6,28.8,00.0,38.4,31.3,10.1,0000.0,0033.09,0008.19,0003.22
2022-04-20 06:19:00,,0813.3,5.00,0.00,29.6,28.8,00.0,38.5,31.3,10.2,0000.0,0034.56,0008.38,0003.28
2022-04-20 06:20:00,,0813.4,5.00,0.00,29.5,28.8,00.0,38.5,31.3,10.2,0000.0,0036.57,0008.68,0003.33
2022-04-20 06:21:00,,0813.4,5.00,0.00,29.5,28.8,00.0,38.5,31.3,10.3,0000.0,0037.59,0009.00,0003.39
2022-04-20 06:22:00,,0813.4,5.01,0.00,29.5,28.8,00.0,38.5,31.3,10.3,0000.0,0039.35,0009.36,0003.45
2022-04-20 06:23:00,,0813.4,4.98,0.00,29.5,28.8,00.0,38.5,31.3,10.2,0000.0,0040.69,0009.69,0003.52
2022-04-20 06:24:00,,0813.4,5.02,0.00,29.5,28.8,00.0,38.5,31.3,10.2,0000.0,0041.23,0009.98,0003.58
2022-04-20 06:25:00,,0813.4,5.00,0.00,29.5,28.7,00.0,38.5,31.3,10.2,0000.0,0042.39,0010.07,0003.62
2022-04-20 06:26:00,,0813.4,4.99,0.00,29.5,28.7,00.0,38.5,31.2,10.2,0002.2,0041.74,0010.14,0003.65
2022-04-20 06:27:00,,0813.4,5.00,0.00,29.5,28.7,00.0,38.5,31.2,10.3,0004.2,0040.52,0010.30,0003.69
2022-04-20 06:28:00,,0813.5,5.00,0.00,29.5,28.7,00.0,38.5,31.3,10.3,0004.4,0039.94,0010.58,0003.73
2022-04-20 06:29:00,,0813.5,5.02,0.00,29.5,28.7,00.0,38.5,31.3,10.3,0004.9,0038.51,0010.69,0003.77
2022-04-20 06:30:00,,0813.5,4.99,0.00,29.5,28.7,00.0,38.5,31.3,10.3,0004.0,0037.89,0010.80,0003.80
2022-04-20 06:31:00,,0813.6,5.01,0.00,29.5,28.7,00.0,38.5,31.3,10.3,0004.6,0037.51,0010.88,0003.83
2022-04-20 06:32:00,,0813.5,4.99,0.00,29.5,28.7,00.0,38.5,31.3,10.3,0003.2,0038.34,0010.98,0003.86
2022-04-20 06:33:00,,0813.6,5.00,0.00,29.5,28.7,00.0,38.5,31.3,10.3,0002.0,0039.09,0010.94,0003.87
2022-04-20 06:34:00,,0814.0,5.00,0.00,29.5,28.7,00.0,38.5,31.3,10.2,0001.5,0039.51,0010.94,0003.87
2022-04-20 06:35:00,,0814.0,5.00,0.00,29.5,28.7,00.0,38.4,31.3,10.3,0001.2,0041.01,0011.07,0003.88
2022-04-20 06:36:00,,0814.0,4.99,0.00,29.5,28.7,00.0,38.4,31.3,10.2,0001.2,0041.34,0011.13,0003.91
2022-04-20 06:37:00,,0813.8,5.00,0.00,29.5,28.7,00.0,38.4,31.3,10.2,0001.4,0042.02,0011.17,0003.93
2022-04-20 06:38:00,,0813.7,5.00,0.00,29.5,28.8,00.0,38.5,31.3,10.2,0000.7,0042.13,0011.23,0003.94
2022-04-20 06:39:00,,0813.7,4.99,0.00,29.5,28.8,00.0,38.5,31.2,10.2,0000.7,0043.11,0011.22,0003.95
2022-04-20 06:40:00,,0813.8,5.02,0.00,29.5,28.7,00.0,38.5,31.2,10.2,0000.7,0043.94,0011.29,0003.97
2022-04-20 06:41:00,,0813.8,5.00,0.00,29.5,28.7,00.0,38.5,31.3,10.2,0001.6,0044.68,0011.43,0003.99
2022-04-20 06:42:00,,0813.9,5.00,0.00,29.5,28.8,00.0,38.5,31.3,10.2,0001.3,0044.71,0011.55,0004.02
2022-04-20 06:43:00,,0813.8,5.01,0.00,29.5,28.8,00.0,38.5,31.3,10.2,0002.0,0046.40,0011.68,0004.04
2022-04-20 06:44:00,,0814.1,4.99,0.00,29.5,28.7,00.0,38.5,31.3,10.2,0001.7,0045.95,0011.69,0004.05
2022-04-20 06:45:00,,0814.0,5.02,0.00,29.5,28.7,00.0,38.5,31.3,10.2,0000.9,0046.68,0011.89,0004.09
2022-04-20 06:46:00,,0813.9,5.00,0.00,29.5,28.7,00.0,38.5,31.3,10.2,0002.2,0046.63,0012.02,0004.13
2022-04-20 06:47:00,,0814.0,4.99,0.00,29.5,28.7,00.0,38.5,31.3,10.2,0001.7,0046.28,0012.13,0004.15
2022-04-20 06:48:00,,0814.0,5.01,0.00,29.5,28.7,00.0,38.5,31.3,10.2,0001.9,0047.57,0012.34,0004.18
2022-04-20 06:49:00,,0814.2,4.99,0.00,29.5,28.7,00.0,38.5,31.3,10.2,0002.5,0048.53,0012.49,0004.21
2022-04-20 06:50:00,,0814.1,5.01,0.00,29.5,28.8,00.0,38.5,31.3,10.2,0002.7,0049.69,0012.70,0004.23
2022-04-20 06:51:00,,0814.0,4.99,0.00,29.5,28.8,00.0,38.5,31.3,10.2,0002.3,0051.09,0012.98,0004.27
2022-04-20 06:52:00,,0814.0,4.98,0.00,29.5,28.7,00.0,38.5,31.3,10.1,0002.4,0051.80,0013.22,0004.30
2022-04-20 06:53:00,,0814.0,5.01,0.00,29.5,28.7,00.0,38.5,31.3,10.1,0002.1,0053.69,0013.45,0004.32
2022-04-20 06:54:00,,0814.2,4.99,0.00,29.5,28.7,00.0,38.5,31.3,10.1,0001.3,0054.93,0013.46,0004.34
2022-04-20 06:55:00,,0814.1,5.01,0.00,29.5,28.7,00.0,38.5,31.3,10.1,0001.3,0058.02,0013.73,0004.38
2022-04-20 06:56:00,,0814.1,4.99,0.00,29.5,28.7,00.0,38.5,31.2,10.1,0001.0,0058.94,0013.97,0004.44
2022-04-20 06:57:00,,0814.2,5.02,0.00,29.5,28.7,00.0,38.5,31.2,10.1,0000.8,0060.25,0014.11,0004.45
2022-04-20 06:58:00,,0814.2,5.00,0.00,29.5,28.7,00.0,38.5,31.3,10.0,0000.4,0062.82,0014.37,0004.48
2022-04-20 06:59:00,,0814.3,4.99,0.00,29.5,28.7,00.0,38.5,31.3,09.8,-000.6,0064.08,0014.63,0004.49
